TimeEST,TemperatureF,Dew PointF,Humidity,Sea Level PressureIn,VisibilityMPH,Wind Direction,Wind SpeedMPH,Gust SpeedMPH,PrecipitationIn,Events,Conditions,WindDirDegrees,DateUTC
12:53 AM,24.1,17.1,75,30.44,10.0,Calm,Calm,-,N/A,,Clear,0,2013-12-08 05:53:00
1:53 AM,25.0,17.1,72,30.45,10.0,Calm,Calm,-,N/A,,Clear,0,2013-12-08 06:53:00
2:53 AM,23.0,17.1,78,30.46,10.0,Calm,Calm,-,N/A,,Clear,0,2013-12-08 07:53:00
3:53 AM,23.0,18.0,81,30.47,10.0,NW,4.6,-,N/A,,Clear,320,2013-12-08 08:53:00
4:53 AM,23.0,16.0,74,30.49,10.0,NW,3.5,-,N/A,,Clear,320,2013-12-08 09:53:00
5:53 AM,18.0,14.0,84,30.52,10.0,SSW,3.5,-,N/A,,Clear,210,2013-12-08 10:53:00
6:53 AM,19.0,15.1,85,30.54,10.0,Calm,Calm,-,N/A,,Clear,0,2013-12-08 11:53:00
7:53 AM,24.1,18.0,77,30.56,10.0,Calm,Calm,-,N/A,,Clear,0,2013-12-08 12:53:00
8:53 AM,27.0,18.0,69,30.56,10.0,NNW,3.5,-,N/A,,Clear,330,2013-12-08 13:53:00
9:53 AM,28.0,18.0,66,30.57,10.0,North,5.8,-,N/A,,Clear,350,2013-12-08 14:53:00
10:53 AM,28.9,16.0,58,30.57,10.0,North,4.6,-,N/A,,Clear,360,2013-12-08 15:53:00
11:53 AM,28.9,14.0,54,30.55,10.0,WNW,4.6,-,N/A,,Clear,300,2013-12-08 16:53:00
12:53 PM,30.0,14.0,51,30.53,10.0,NNW,6.9,-,N/A,,Clear,330,2013-12-08 17:53:00
1:53 PM,30.0,14.0,51,30.55,10.0,NW,4.6,-,N/A,,Clear,310,2013-12-08 18:53:00
2:53 PM,28.9,12.9,51,30.51,10.0,NNW,9.2,-,N/A,,Clear,340,2013-12-08 19:53:00
3:53 PM,28.9,14.0,54,30.54,10.0,NW,4.6,-,N/A,,Clear,320,2013-12-08 20:53:00
4:53 PM,28.9,14.0,54,30.56,10.0,Calm,Calm,-,N/A,,Clear,0,2013-12-08 21:53:00
5:53 PM,28.9,15.1,56,30.55,10.0,Calm,Calm,-,N/A,,Clear,0,2013-12-08 22:53:00
6:53 PM,27.0,16.0,63,30.56,10.0,Calm,Calm,-,N/A,,Clear,0,2013-12-08 23:53:00
7:53 PM,27.0,18.0,69,30.53,10.0,Calm,Calm,-,N/A,,Overcast,0,2013-12-09 00:53:00
8:53 PM,28.0,19.0,69,30.55,10.0,Calm,Calm,-,N/A,,Overcast,0,2013-12-09 01:53:00
9:53 PM,28.0,19.9,72,30.52,10.0,Calm,Calm,-,N/A,,Overcast,0,2013-12-09 02:53:00
10:53 PM,28.0,17.1,63,30.50,10.0,North,5.8,-,N/A,,Overcast,10,2013-12-09 03:53:00
11:53 PM,28.0,15.1,58,30.49,10.0,North,3.5,-,N/A,,Overcast,360,2013-12-09 04:53:00